Precipitable_Water
0.22 0.12 0.11 0.11 0.13 0.16 0.17 0.18 0.18 0.18 0.18 0.17 0.15 0.14 0.13 0.13 0.14 0.17 0.19 0.23 0.26 0.20 0.17 0.18 0.18 0.17 0.16 0.17 0.19 0.20 0.22 0.22 0.21 0.21 0.21 0.22 0.23 0.23 0.25 0.26 0.28 0.29 0.30 0.35 0.37 0.38 0.39 0.40 0.42 0.44 0.46 0.47 0.48 0.49 0.50 0.50 0.50 0.49 0.48 0.45 0.42 0.39 0.36 0.33 0.29 0.24 0.21 0.18 0.16 0.15 0.14 0.12 0.12 0.12 0.13 0.12 0.12 0.12 0.12 0.12 0.12 0.12 0.12 0.11 0.11 0.11
0.19 0.11 0.12 0.15 0.17 0.18 0.18 0.20 0.20 0.18 0.18 0.16 0.14 0.13 0.13 0.14 0.12 0.17 0.17 0.22 0.24 0.19 0.15 0.19 0.17 0.15 0.16 0.17 0.18 0.20 0.21 0.19 0.20 0.20 0.21 0.22 0.23 0.24 0.25 0.26 0.27 0.29 0.32 0.34 0.35 0.36 0.38 0.39 0.41 0.44 0.45 0.46 0.46 0.48 0.49 0.50 0.50 0.50 0.48 0.46 0.43 0.41 0.37 0.34 0.31 0.26 0.23 0.20 0.18 0.16 0.14 0.13 0.12 0.12 0.12 0.11 0.11 0.12 0.12 0.12 0.12 0.12 0.12 0.11 0.10 0.10
0.11 0.11 0.15 0.18 0.20 0.20 0.20 0.19 0.20 0.17 0.15 0.16 0.14 0.14 0.12 0.13 0.15 0.17 0.18 0.21 0.23 0.20 0.15 0.18 0.15 0.14 0.15 0.16 0.18 0.18 0.18 0.19 0.21 0.21 0.21 0.22 0.23 0.24 0.25 0.26 0.27 0.29 0.30 0.32 0.33 0.35 0.36 0.38 0.40 0.42 0.45 0.46 0.47 0.48 0.49 0.50 0.50 0.49 0.48 0.46 0.45 0.43 0.39 0.36 0.33 0.28 0.23 0.22 0.20 0.18 0.15 0.14 0.13 0.13 0.13 0.12 0.12 0.13 0.12 0.12 0.12 0.12 0.12 0.11 0.10 0.10
0.08 0.12 0.17 0.21 0.21 0.18 0.17 0.18 0.17 0.17 0.17 0.15 0.14 0.12 0.10 0.14 0.13 0.10 0.15 0.19 0.22 0.20 0.15 0.16 0.14 0.13 0.14 0.15 0.16 0.18 0.18 0.19 0.21 0.23 0.23 0.24 0.23 0.23 0.25 0.26 0.27 0.28 0.29 0.29 0.31 0.32 0.35 0.37 0.39 0.42 0.44 0.46 0.47 0.48 0.48 0.49 0.49 0.49 0.48 0.47 0.46 0.44 0.41 0.37 0.35 0.30 0.26 0.23 0.21 0.20 0.18 0.16 0.15 0.13 0.14 0.13 0.13 0.13 0.12 0.12 0.12 0.12 0.11 0.11 0.11 0.10
0.10 0.15 0.21 0.20 0.19 0.17 0.14 0.16 0.15 0.14 0.12 0.15 0.14 0.13 0.12 0.13 0.15 0.14 0.14 0.18 0.19 0.19 0.19 0.17 0.12 0.10 0.11 0.10 0.12 0.16 0.20 0.19 0.20 0.22 0.23 0.24 0.25 0.26 0.27 0.28 0.29 0.29 0.29 0.30 0.31 0.32 0.34 0.35 0.38 0.41 0.44 0.46 0.47 0.47 0.48 0.48 0.48 0.49 0.48 0.47 0.47 0.45 0.41 0.38 0.36 0.31 0.26 0.23 0.21 0.20 0.18 0.17 0.15 0.15 0.13 0.13 0.12 0.12 0.12 0.12 0.12 0.11 0.12 0.11 0.11 0.11
0.13 0.19 0.22 0.18 0.17 0.17 0.15 0.13 0.15 0.14 0.11 0.12 0.15 0.14 0.15 0.16 0.15 0.16 0.17 0.15 0.12 0.11 0.17 0.15 0.08 0.06 0.09 0.11 0.11 0.14 0.16 0.16 0.19 0.19 0.19 0.20 0.22 0.24 0.24 0.25 0.28 0.30 0.31 0.31 0.31 0.32 0.34 0.35 0.38 0.41 0.43 0.45 0.46 0.47 0.49 0.49 0.49 0.49 0.48 0.47 0.47 0.46 0.42 0.39 0.37 0.33 0.28 0.24 0.21 0.19 0.17 0.15 0.14 0.12 0.12 0.11 0.11 0.11 0.11 0.11 0.12 0.12 0.12 0.11 0.11 0.11
0.15 0.20 0.21 0.17 0.16 0.15 0.15 0.14 0.16 0.17 0.12 0.10 0.11 0.17 0.16 0.16 0.16 0.16 0.15 0.14 0.09 0.07 0.12 0.18 0.09 0.05 0.09 0.09 0.10 0.12 0.14 0.14 0.17 0.18 0.18 0.19 0.20 0.22 0.23 0.25 0.27 0.28 0.30 0.32 0.33 0.34 0.33 0.35 0.37 0.39 0.42 0.45 0.46 0.48 0.49 0.49 0.49 0.49 0.48 0.47 0.47 0.46 0.42 0.40 0.38 0.35 0.30 0.24 0.22 0.20 0.18 0.16 0.14 0.13 0.12 0.12 0.12 0.12 0.12 0.13 0.12 0.11 0.12 0.11 0.11 0.10
0.18 0.17 0.18 0.18 0.16 0.15 0.14 0.13 0.16 0.17 0.13 0.10 0.16 0.18 0.17 0.15 0.14 0.14 0.14 0.14 0.11 0.16 0.16 0.16 0.14 0.09 0.06 0.07 0.12 0.14 0.13 0.13 0.14 0.16 0.17 0.18 0.19 0.20 0.23 0.25 0.27 0.28 0.29 0.30 0.31 0.33 0.34 0.35 0.36 0.38 0.42 0.44 0.46 0.48 0.48 0.48 0.49 0.48 0.48 0.47 0.47 0.46 0.42 0.40 0.38 0.36 0.32 0.25 0.22 0.20 0.18 0.17 0.15 0.14 0.13 0.12 0.12 0.13 0.13 0.12 0.11 0.11 0.11 0.11 0.11 0.11
0.17 0.15 0.16 0.15 0.15 0.14 0.12 0.15 0.18 0.19 0.14 0.13 0.18 0.19 0.16 0.16 0.15 0.15 0.14 0.13 0.14 0.12 0.08 0.12 0.16 0.10 0.08 0.09 0.14 0.14 0.11 0.12 0.13 0.15 0.16 0.17 0.19 0.20 0.22 0.25 0.27 0.28 0.29 0.30 0.31 0.32 0.33 0.35 0.36 0.38 0.40 0.44 0.46 0.47 0.47 0.48 0.48 0.48 0.47 0.47 0.46 0.45 0.42 0.40 0.38 0.36 0.32 0.27 0.23 0.21 0.19 0.16 0.16 0.15 0.14 0.14 0.13 0.12 0.12 0.11 0.11 0.11 0.11 0.11 0.11 0.11
0.18 0.19 0.18 0.17 0.15 0.13 0.16 0.18 0.20 0.20 0.14 0.18 0.20 0.20 0.18 0.17 0.16 0.16 0.14 0.13 0.13 0.10 0.06 0.09 0.14 0.08 0.07 0.08 0.10 0.13 0.12 0.12 0.13 0.15 0.16 0.18 0.19 0.20 0.22 0.24 0.27 0.28 0.29 0.31 0.32 0.33 0.34 0.36 0.37 0.39 0.41 0.44 0.46 0.47 0.48 0.48 0.48 0.48 0.47 0.46 0.45 0.44 0.41 0.39 0.38 0.36 0.32 0.27 0.23 0.20 0.18 0.17 0.15 0.15 0.14 0.13 0.12 0.12 0.12 0.11 0.11 0.11 0.11 0.11 0.11 0.11
0.19 0.25 0.25 0.19 0.15 0.17 0.19 0.20 0.21 0.21 0.20 0.22 0.20 0.17 0.15 0.15 0.14 0.15 0.14 0.13 0.11 0.06 0.07 0.11 0.14 0.12 0.06 0.06 0.08 0.09 0.10 0.12 0.13 0.15 0.17 0.18 0.19 0.20 0.22 0.24 0.26 0.27 0.28 0.29 0.31 0.33 0.34 0.36 0.37 0.39 0.40 0.43 0.45 0.46 0.47 0.47 0.47 0.47 0.46 0.45 0.44 0.43 0.41 0.39 0.38 0.36 0.33 0.28 0.23 0.21 0.19 0.17 0.16 0.15 0.14 0.13 0.12 0.12 0.11 0.11 0.11 0.11 0.11 0.11 0.11 0.11
0.16 0.19 0.19 0.22 0.25 0.22 0.22 0.18 0.23 0.23 0.22 0.20 0.16 0.14 0.12 0.11 0.11 0.10 0.11 0.11 0.06 0.05 0.09 0.13 0.13 0.14 0.07 0.06 0.08 0.12 0.14 0.14 0.14 0.14 0.15 0.16 0.18 0.19 0.21 0.24 0.26 0.27 0.27 0.28 0.30 0.31 0.33 0.34 0.36 0.38 0.39 0.42 0.44 0.45 0.45 0.46 0.46 0.46 0.45 0.45 0.43 0.42 0.40 0.39 0.38 0.36 0.33 0.29 0.24 0.21 0.20 0.18 0.17 0.16 0.14 0.13 0.12 0.12 0.11 0.11 0.11 0.11 0.11 0.11 0.11 0.11
0.11 0.13 0.18 0.21 0.25 0.20 0.17 0.14 0.15 0.18 0.19 0.17 0.15 0.14 0.08 0.06 0.07 0.05 0.07 0.05 0.07 0.05 0.10 0.13 0.13 0.10 0.08 0.08 0.10 0.11 0.12 0.15 0.17 0.16 0.16 0.16 0.17 0.19 0.21 0.23 0.25 0.26 0.27 0.27 0.29 0.30 0.31 0.32 0.34 0.36 0.38 0.41 0.43 0.43 0.44 0.45 0.45 0.46 0.45 0.44 0.43 0.41 0.40 0.39 0.38 0.36 0.33 0.29 0.24 0.22 0.20 0.19 0.18 0.17 0.15 0.14 0.13 0.12 0.11 0.11 0.11 0.11 0.11 0.11 0.10 0.10
0.10 0.15 0.16 0.18 0.19 0.22 0.18 0.10 0.10 0.09 0.13 0.13 0.12 0.11 0.08 0.06 0.05 0.04 0.05 0.07 0.07 0.08 0.11 0.12 0.15 0.08 0.08 0.10 0.12 0.11 0.13 0.16 0.17 0.17 0.18 0.18 0.18 0.19 0.21 0.23 0.24 0.25 0.26 0.27 0.28 0.30 0.31 0.33 0.35 0.37 0.38 0.40 0.42 0.43 0.44 0.44 0.45 0.45 0.45 0.44 0.42 0.41 0.40 0.39 0.38 0.36 0.33 0.30 0.25 0.23 0.21 0.19 0.18 0.17 0.16 0.14 0.13 0.12 0.12 0.12 0.11 0.12 0.11 0.11 0.11 0.10
0.07 0.06 0.12 0.14 0.11 0.20 0.18 0.16 0.13 0.11 0.12 0.13 0.16 0.14 0.10 0.09 0.07 0.04 0.05 0.04 0.05 0.06 0.10 0.14 0.10 0.06 0.05 0.06 0.11 0.13 0.15 0.16 0.17 0.18 0.19 0.20 0.20 0.21 0.22 0.24 0.24 0.24 0.25 0.27 0.27 0.28 0.31 0.33 0.35 0.36 0.38 0.40 0.42 0.43 0.43 0.44 0.44 0.45 0.44 0.44 0.42 0.40 0.39 0.38 0.37 0.36 0.34 0.30 0.26 0.23 0.22 0.20 0.19 0.18 0.16 0.15 0.14 0.13 0.12 0.12 0.12 0.12 0.12 0.11 0.11 0.11
0.08 0.07 0.10 0.17 0.17 0.19 0.16 0.20 0.19 0.15 0.13 0.17 0.18 0.17 0.13 0.11 0.13 0.07 0.08 0.08 0.08 0.08 0.07 0.09 0.07 0.08 0.07 0.11 0.13 0.15 0.15 0.15 0.18 0.19 0.19 0.19 0.20 0.21 0.21 0.21 0.22 0.23 0.24 0.26 0.26 0.28 0.30 0.33 0.35 0.37 0.38 0.40 0.41 0.42 0.43 0.43 0.44 0.44 0.44 0.43 0.42 0.40 0.39 0.38 0.38 0.36 0.35 0.31 0.27 0.23 0.22 0.20 0.19 0.18 0.17 0.15 0.14 0.13 0.12 0.12 0.12 0.12 0.12 0.12 0.11 0.11
0.09 0.07 0.14 0.16 0.19 0.18 0.18 0.20 0.18 0.18 0.07 0.12 0.14 0.10 0.13 0.19 0.15 0.12 0.12 0.13 0.12 0.09 0.05 0.09 0.08 0.08 0.12 0.10 0.14 0.13 0.13 0.15 0.16 0.16 0.17 0.17 0.18 0.19 0.19 0.20 0.21 0.23 0.24 0.25 0.26 0.27 0.29 0.33 0.35 0.37 0.38 0.39 0.41 0.42 0.42 0.43 0.43 0.43 0.44 0.43 0.42 0.40 0.39 0.39 0.38 0.37 0.36 0.32 0.27 0.24 0.22 0.21 0.19 0.18 0.16 0.15 0.13 0.13 0.12 0.12 0.12 0.12 0.12 0.12 0.12 0.11
0.08 0.07 0.11 0.12 0.11 0.19 0.22 0.21 0.20 0.21 0.18 0.15 0.09 0.13 0.20 0.21 0.19 0.13 0.08 0.08 0.08 0.06 0.05 0.07 0.06 0.06 0.07 0.05 0.10 0.11 0.11 0.13 0.14 0.14 0.16 0.17 0.18 0.17 0.18 0.19 0.20 0.22 0.23 0.25 0.27 0.28 0.30 0.32 0.35 0.37 0.39 0.40 0.41 0.42 0.42 0.43 0.43 0.43 0.44 0.43 0.42 0.40 0.38 0.38 0.38 0.37 0.36 0.33 0.28 0.24 0.22 0.21 0.19 0.18 0.17 0.15 0.14 0.13 0.12 0.12 0.12 0.12 0.12 0.12 0.12 0.12
0.14 0.07 0.10 0.13 0.15 0.18 0.21 0.20 0.16 0.20 0.23 0.15 0.14 0.22 0.12 0.09 0.08 0.14 0.10 0.05 0.06 0.05 0.05 0.06 0.07 0.07 0.08 0.07 0.08 0.08 0.09 0.10 0.12 0.14 0.15 0.16 0.16 0.16 0.17 0.18 0.20 0.22 0.23 0.24 0.25 0.27 0.28 0.31 0.34 0.37 0.38 0.40 0.41 0.42 0.42 0.42 0.43 0.43 0.43 0.43 0.42 0.40 0.39 0.39 0.38 0.37 0.36 0.34 0.29 0.25 0.22 0.20 0.19 0.18 0.17 0.16 0.15 0.13 0.12 0.12 0.12 0.12 0.12 0.12 0.12 0.12
0.15 0.08 0.07 0.15 0.15 0.16 0.16 0.15 0.08 0.11 0.20 0.21 0.21 0.17 0.22 0.16 0.11 0.09 0.10 0.10 0.09 0.06 0.07 0.05 0.06 0.04 0.08 0.08 0.08 0.09 0.10 0.12 0.12 0.13 0.14 0.16 0.17 0.17 0.17 0.18 0.19 0.20 0.21 0.23 0.25 0.26 0.28 0.31 0.34 0.37 0.38 0.39 0.40 0.41 0.42 0.41 0.42 0.42 0.42 0.43 0.41 0.39 0.38 0.38 0.38 0.37 0.36 0.34 0.31 0.25 0.22 0.21 0.19 0.18 0.17 0.16 0.15 0.13 0.12 0.12 0.12 0.12 0.12 0.12 0.12 0.12
0.11 0.12 0.06 0.09 0.14 0.14 0.08 0.12 0.08 0.11 0.09 0.12 0.13 0.13 0.16 0.15 0.17 0.15 0.14 0.11 0.09 0.07 0.07 0.07 0.05 0.04 0.06 0.10 0.10 0.10 0.12 0.13 0.14 0.13 0.15 0.16 0.17 0.18 0.18 0.19 0.19 0.20 0.21 0.22 0.24 0.26 0.28 0.31 0.34 0.37 0.39 0.40 0.41 0.42 0.41 0.41 0.40 0.41 0.42 0.42 0.41 0.38 0.37 0.37 0.38 0.37 0.36 0.34 0.31 0.26 0.21 0.20 0.19 0.18 0.17 0.16 0.15 0.14 0.13 0.13 0.13 0.12 0.12 0.12 0.12 0.12
0.11 0.11 0.07 0.08 0.08 0.08 0.08 0.13 0.14 0.14 0.15 0.13 0.12 0.11 0.13 0.12 0.10 0.08 0.07 0.14 0.12 0.09 0.08 0.07 0.05 0.06 0.07 0.12 0.11 0.12 0.13 0.14 0.16 0.16 0.16 0.16 0.17 0.17 0.18 0.19 0.20 0.20 0.21 0.22 0.23 0.25 0.28 0.31 0.33 0.37 0.39 0.40 0.40 0.40 0.40 0.40 0.40 0.40 0.41 0.42 0.41 0.38 0.37 0.37 0.38 0.37 0.35 0.34 0.31 0.26 0.21 0.19 0.19 0.18 0.17 0.16 0.15 0.14 0.13 0.13 0.13 0.13 0.12 0.12 0.12 0.11
0.16 0.14 0.10 0.07 0.08 0.08 0.10 0.13 0.17 0.17 0.16 0.15 0.16 0.14 0.17 0.15 0.14 0.11 0.07 0.08 0.12 0.12 0.13 0.11 0.09 0.06 0.09 0.12 0.13 0.13 0.14 0.15 0.17 0.18 0.16 0.17 0.17 0.17 0.17 0.18 0.19 0.20 0.21 0.22 0.23 0.25 0.28 0.31 0.33 0.36 0.38 0.39 0.39 0.40 0.40 0.39 0.39 0.40 0.41 0.42 0.41 0.38 0.37 0.37 0.38 0.37 0.35 0.33 0.31 0.26 0.21 0.19 0.19 0.18 0.17 0.16 0.15 0.14 0.13 0.13 0.13 0.13 0.12 0.12 0.11 0.11
0.18 0.12 0.09 0.08 0.09 0.10 0.12 0.15 0.17 0.18 0.17 0.15 0.16 0.17 0.15 0.13 0.14 0.12 0.11 0.12 0.10 0.10 0.10 0.10 0.08 0.06 0.08 0.13 0.13 0.14 0.16 0.17 0.18 0.18 0.17 0.17 0.17 0.18 0.18 0.18 0.19 0.19 0.20 0.22 0.24 0.26 0.28 0.31 0.33 0.35 0.36 0.38 0.39 0.39 0.39 0.39 0.39 0.40 0.41 0.42 0.41 0.38 0.37 0.37 0.37 0.36 0.35 0.33 0.31 0.26 0.21 0.19 0.19 0.18 0.17 0.16 0.15 0.14 0.14 0.13 0.13 0.13 0.12 0.12 0.11 0.11
0.11 0.12 0.10 0.07 0.06 0.06 0.07 0.10 0.12 0.15 0.15 0.13 0.12 0.14 0.16 0.16 0.16 0.16 0.16 0.15 0.11 0.10 0.10 0.09 0.06 0.06 0.08 0.12 0.13 0.14 0.15 0.14 0.15 0.16 0.18 0.17 0.18 0.18 0.19 0.19 0.19 0.20 0.20 0.21 0.23 0.25 0.27 0.30 0.32 0.33 0.36 0.38 0.39 0.39 0.39 0.39 0.39 0.40 0.41 0.41 0.41 0.39 0.38 0.37 0.37 0.36 0.34 0.33 0.30 0.25 0.21 0.19 0.18 0.18 0.17 0.16 0.16 0.15 0.14 0.14 0.13 0.13 0.12 0.12 0.11 0.11
0.12 0.11 0.10 0.06 0.05 0.04 0.04 0.04 0.05 0.07 0.09 0.12 0.14 0.14 0.15 0.14 0.14 0.13 0.10 0.12 0.09 0.10 0.11 0.09 0.08 0.09 0.10 0.11 0.11 0.12 0.14 0.14 0.15 0.16 0.17 0.18 0.19 0.19 0.19 0.19 0.19 0.20 0.20 0.21 0.23 0.24 0.26 0.29 0.32 0.34 0.36 0.38 0.39 0.39 0.39 0.39 0.39 0.40 0.41 0.41 0.41 0.39 0.38 0.37 0.36 0.36 0.35 0.33 0.30 0.24 0.21 0.19 0.18 0.17 0.17 0.16 0.16 0.15 0.15 0.14 0.13 0.13 0.12 0.12 0.11 0.11
0.13 0.13 0.11 0.10 0.08 0.07 0.08 0.09 0.12 0.13 0.11 0.09 0.10 0.12 0.12 0.15 0.15 0.15 0.14 0.11 0.08 0.10 0.09 0.09 0.09 0.10 0.10 0.10 0.10 0.12 0.13 0.13 0.13 0.14 0.15 0.16 0.18 0.19 0.20 0.20 0.20 0.21 0.21 0.22 0.24 0.26 0.28 0.29 0.31 0.33 0.35 0.38 0.39 0.40 0.40 0.39 0.39 0.40 0.40 0.41 0.41 0.40 0.38 0.36 0.36 0.36 0.35 0.33 0.30 0.24 0.21 0.19 0.18 0.17 0.16 0.16 0.16 0.15 0.15 0.14 0.13 0.13 0.12 0.12 0.11 0.11
0.14 0.10 0.11 0.11 0.10 0.10 0.12 0.11 0.13 0.14 0.11 0.11 0.10 0.09 0.11 0.12 0.13 0.13 0.11 0.08 0.12 0.11 0.08 0.09 0.11 0.11 0.10 0.11 0.12 0.12 0.13 0.14 0.14 0.15 0.16 0.17 0.18 0.19 0.19 0.19 0.20 0.21 0.22 0.24 0.25 0.26 0.27 0.29 0.31 0.33 0.35 0.37 0.39 0.40 0.40 0.40 0.40 0.40 0.40 0.40 0.40 0.39 0.37 0.36 0.36 0.35 0.35 0.33 0.29 0.24 0.21 0.20 0.18 0.17 0.16 0.16 0.16 0.16 0.15 0.15 0.14 0.13 0.12 0.12 0.11 0.11
0.12 0.09 0.11 0.11 0.10 0.12 0.13 0.13 0.13 0.13 0.12 0.11 0.11 0.10 0.10 0.12 0.13 0.11 0.10 0.11 0.13 0.10 0.08 0.09 0.11 0.11 0.11 0.12 0.13 0.14 0.15 0.15 0.16 0.17 0.18 0.19 0.20 0.19 0.19 0.19 0.19 0.21 0.22 0.23 0.25 0.27 0.28 0.29 0.31 0.33 0.35 0.37 0.39 0.40 0.40 0.40 0.40 0.40 0.40 0.40 0.40 0.39 0.37 0.36 0.35 0.35 0.35 0.33 0.29 0.25 0.22 0.20 0.19 0.17 0.16 0.16 0.17 0.16 0.16 0.15 0.14 0.13 0.12 0.12 0.12 0.11
0.14 0.10 0.12 0.13 0.11 0.10 0.11 0.12 0.13 0.12 0.12 0.11 0.10 0.10 0.11 0.12 0.11 0.12 0.11 0.13 0.14 0.12 0.12 0.13 0.12 0.12 0.12 0.14 0.15 0.15 0.16 0.17 0.18 0.19 0.19 0.19 0.18 0.19 0.19 0.20 0.20 0.22 0.23 0.24 0.25 0.27 0.29 0.30 0.32 0.33 0.35 0.37 0.39 0.40 0.40 0.39 0.39 0.40 0.40 0.40 0.39 0.38 0.36 0.36 0.35 0.35 0.34 0.33 0.30 0.25 0.23 0.21 0.19 0.17 0.17 0.17 0.17 0.17 0.16 0.15 0.14 0.13 0.12 0.12 0.12 0.11
0.14 0.10 0.15 0.12 0.10 0.08 0.10 0.12 0.12 0.12 0.11 0.10 0.09 0.11 0.11 0.11 0.12 0.12 0.12 0.13 0.14 0.13 0.14 0.14 0.13 0.12 0.14 0.16 0.17 0.17 0.18 0.19 0.19 0.18 0.18 0.19 0.19 0.19 0.20 0.20 0.21 0.22 0.24 0.25 0.26 0.27 0.29 0.30 0.32 0.34 0.36 0.37 0.39 0.40 0.40 0.40 0.40 0.40 0.40 0.40 0.39 0.37 0.36 0.36 0.35 0.35 0.34 0.33 0.30 0.26 0.24 0.22 0.19 0.17 0.17 0.18 0.18 0.18 0.17 0.16 0.15 0.14 0.13 0.12 0.12 0.11
0.16 0.12 0.14 0.13 0.10 0.08 0.10 0.10 0.11 0.12 0.11 0.10 0.09 0.09 0.09 0.10 0.10 0.11 0.11 0.13 0.12 0.11 0.13 0.13 0.12 0.12 0.15 0.17 0.18 0.18 0.18 0.17 0.17 0.18 0.19 0.19 0.20 0.20 0.20 0.21 0.22 0.23 0.24 0.25 0.27 0.28 0.29 0.30 0.32 0.34 0.36 0.38 0.39 0.41 0.41 0.41 0.40 0.40 0.40 0.40 0.38 0.37 0.37 0.35 0.34 0.34 0.34 0.33 0.31 0.27 0.24 0.22 0.19 0.17 0.18 0.18 0.18 0.18 0.17 0.17 0.15 0.14 0.13 0.12 0.12 0.11
0.16 0.14 0.13 0.13 0.11 0.09 0.11 0.13 0.12 0.11 0.09 0.07 0.08 0.10 0.11 0.12 0.13 0.14 0.15 0.15 0.14 0.15 0.13 0.12 0.13 0.16 0.18 0.20 0.19 0.18 0.18 0.17 0.17 0.18 0.20 0.21 0.21 0.20 0.20 0.21 0.23 0.24 0.25 0.26 0.28 0.29 0.31 0.32 0.33 0.35 0.37 0.39 0.41 0.41 0.42 0.42 0.41 0.40 0.41 0.39 0.38 0.38 0.36 0.35 0.34 0.34 0.34 0.33 0.31 0.28 0.25 0.22 0.19 0.18 0.18 0.19 0.19 0.19 0.18 0.17 0.15 0.14 0.13 0.12 0.12 0.11
0.17 0.16 0.15 0.16 0.11 0.10 0.12 0.13 0.13 0.09 0.06 0.07 0.11 0.14 0.14 0.13 0.14 0.14 0.13 0.13 0.15 0.17 0.15 0.17 0.18 0.19 0.20 0.19 0.19 0.18 0.18 0.18 0.19 0.20 0.23 0.23 0.22 0.21 0.22 0.22 0.23 0.25 0.27 0.28 0.30 0.31 0.33 0.34 0.36 0.36 0.38 0.40 0.43 0.44 0.44 0.44 0.43 0.43 0.42 0.40 0.39 0.38 0.36 0.35 0.34 0.34 0.33 0.33 0.31 0.28 0.25 0.23 0.20 0.19 0.20 0.20 0.19 0.19 0.18 0.17 0.16 0.14 0.13 0.13 0.12 0.11
0.16 0.16 0.15 0.17 0.13 0.12 0.14 0.13 0.10 0.07 0.07 0.11 0.14 0.16 0.18 0.17 0.17 0.16 0.15 0.14 0.15 0.16 0.17 0.17 0.18 0.19 0.20 0.20 0.21 0.21 0.21 0.21 0.22 0.22 0.23 0.24 0.25 0.25 0.24 0.25 0.25 0.26 0.27 0.29 0.30 0.32 0.34 0.35 0.37 0.38 0.39 0.40 0.44 0.45 0.44 0.43 0.44 0.43 0.42 0.40 0.39 0.38 0.37 0.36 0.34 0.33 0.33 0.33 0.32 0.29 0.26 0.23 0.21 0.20 0.21 0.20 0.20 0.20 0.19 0.18 0.16 0.15 0.14 0.13 0.12 0.12
0.16 0.15 0.16 0.15 0.16 0.16 0.13 0.12 0.09 0.09 0.13 0.15 0.15 0.19 0.21 0.20 0.20 0.19 0.15 0.14 0.15 0.17 0.19 0.19 0.19 0.20 0.21 0.21 0.22 0.23 0.24 0.25 0.25 0.25 0.28 0.29 0.29 0.29 0.28 0.28 0.28 0.29 0.30 0.31 0.31 0.32 0.34 0.36 0.38 0.39 0.40 0.42 0.44 0.45 0.45 0.44 0.45 0.43 0.41 0.40 0.39 0.38 0.37 0.36 0.34 0.33 0.33 0.33 0.33 0.30 0.27 0.24 0.22 0.21 0.21 0.21 0.21 0.21 0.20 0.18 0.17 0.15 0.14 0.13 0.13 0.12
0.19 0.17 0.17 0.13 0.15 0.11 0.11 0.11 0.10 0.13 0.12 0.13 0.15 0.16 0.19 0.19 0.19 0.18 0.14 0.14 0.17 0.21 0.21 0.21 0.21 0.21 0.22 0.24 0.26 0.28 0.30 0.30 0.27 0.27 0.31 0.32 0.33 0.34 0.33 0.33 0.33 0.32 0.33 0.33 0.35 0.36 0.38 0.40 0.41 0.43 0.43 0.44 0.44 0.45 0.46 0.46 0.45 0.43 0.41 0.39 0.39 0.39 0.38 0.35 0.33 0.33 0.33 0.34 0.33 0.31 0.28 0.24 0.23 0.22 0.22 0.22 0.22 0.21 0.20 0.19 0.17 0.16 0.15 0.13 0.13 0.12
0.20 0.15 0.16 0.12 0.12 0.14 0.11 0.10 0.10 0.09 0.07 0.09 0.13 0.18 0.22 0.24 0.25 0.24 0.21 0.18 0.24 0.26 0.26 0.24 0.24 0.26 0.27 0.29 0.30 0.32 0.34 0.31 0.27 0.28 0.33 0.37 0.39 0.39 0.38 0.37 0.38 0.38 0.38 0.37 0.38 0.39 0.41 0.43 0.45 0.46 0.46 0.44 0.45 0.46 0.47 0.46 0.45 0.43 0.41 0.39 0.39 0.38 0.37 0.35 0.34 0.33 0.34 0.34 0.34 0.33 0.29 0.26 0.23 0.23 0.23 0.22 0.22 0.22 0.21 0.20 0.19 0.16 0.15 0.14 0.13 0.12
0.19 0.19 0.17 0.14 0.12 0.14 0.12 0.10 0.09 0.08 0.07 0.10 0.13 0.17 0.20 0.24 0.23 0.23 0.18 0.14 0.21 0.24 0.26 0.28 0.30 0.33 0.34 0.34 0.35 0.36 0.33 0.29 0.28 0.31 0.36 0.38 0.39 0.40 0.39 0.39 0.39 0.39 0.39 0.39 0.39 0.39 0.42 0.45 0.47 0.46 0.46 0.45 0.44 0.46 0.46 0.45 0.44 0.42 0.40 0.40 0.39 0.38 0.37 0.37 0.35 0.33 0.34 0.36 0.36 0.35 0.31 0.27 0.24 0.23 0.24 0.23 0.23 0.23 0.22 0.21 0.19 0.17 0.16 0.14 0.13 0.12
0.15 0.15 0.16 0.14 0.13 0.13 0.12 0.10 0.08 0.09 0.09 0.13 0.16 0.19 0.22 0.25 0.26 0.22 0.14 0.14 0.21 0.28 0.32 0.35 0.37 0.39 0.38 0.36 0.36 0.34 0.31 0.28 0.28 0.31 0.35 0.35 0.35 0.35 0.36 0.36 0.36 0.37 0.38 0.39 0.40 0.42 0.43 0.45 0.45 0.44 0.43 0.44 0.45 0.47 0.45 0.44 0.43 0.42 0.41 0.40 0.39 0.38 0.38 0.38 0.36 0.36 0.37 0.37 0.37 0.36 0.33 0.29 0.25 0.24 0.25 0.24 0.24 0.23 0.23 0.22 0.20 0.18 0.16 0.15 0.14 0.13
0.14 0.15 0.15 0.12 0.13 0.13 0.13 0.11 0.12 0.12 0.16 0.20 0.20 0.23 0.24 0.29 0.25 0.18 0.16 0.22 0.31 0.34 0.37 0.38 0.37 0.36 0.35 0.33 0.33 0.30 0.32 0.33 0.34 0.35 0.35 0.34 0.34 0.33 0.33 0.34 0.34 0.36 0.37 0.38 0.38 0.40 0.41 0.42 0.42 0.43 0.43 0.44 0.45 0.46 0.45 0.44 0.42 0.41 0.41 0.41 0.39 0.39 0.41 0.40 0.38 0.37 0.38 0.38 0.38 0.37 0.35 0.31 0.27 0.25 0.26 0.26 0.25 0.24 0.23 0.23 0.21 0.19 0.17 0.15 0.14 0.13
0.13 0.14 0.15 0.15 0.13 0.12 0.13 0.12 0.12 0.14 0.19 0.21 0.24 0.25 0.29 0.22 0.16 0.17 0.25 0.32 0.34 0.35 0.36 0.34 0.31 0.31 0.31 0.29 0.29 0.29 0.30 0.31 0.32 0.33 0.33 0.33 0.33 0.33 0.33 0.33 0.33 0.33 0.35 0.37 0.39 0.39 0.38 0.39 0.40 0.42 0.43 0.44 0.45 0.45 0.45 0.44 0.42 0.41 0.42 0.41 0.39 0.42 0.43 0.40 0.39 0.38 0.38 0.39 0.39 0.38 0.36 0.34 0.29 0.26 0.27 0.28 0.27 0.25 0.24 0.23 0.22 0.20 0.18 0.16 0.14 0.13
0.14 0.12 0.11 0.12 0.15 0.16 0.15 0.13 0.12 0.11 0.16 0.23 0.24 0.22 0.27 0.20 0.24 0.30 0.30 0.31 0.32 0.31 0.28 0.27 0.27 0.27 0.28 0.27 0.28 0.28 0.29 0.30 0.31 0.31 0.31 0.32 0.31 0.31 0.31 0.31 0.31 0.31 0.31 0.32 0.32 0.36 0.38 0.38 0.38 0.38 0.39 0.43 0.44 0.44 0.44 0.44 0.42 0.42 0.42 0.40 0.41 0.45 0.44 0.41 0.39 0.39 0.39 0.39 0.39 0.38 0.37 0.36 0.32 0.27 0.27 0.29 0.28 0.26 0.25 0.24 0.23 0.21 0.19 0.16 0.15 0.13
0.17 0.13 0.13 0.14 0.17 0.13 0.12 0.11 0.12 0.16 0.18 0.24 0.22 0.17 0.22 0.27 0.31 0.31 0.29 0.26 0.28 0.27 0.26 0.26 0.26 0.27 0.28 0.28 0.28 0.28 0.29 0.29 0.29 0.30 0.30 0.31 0.32 0.32 0.33 0.33 0.33 0.33 0.33 0.33 0.33 0.33 0.34 0.34 0.36 0.36 0.37 0.39 0.41 0.43 0.44 0.43 0.42 0.42 0.41 0.40 0.45 0.45 0.44 0.42 0.39 0.39 0.39 0.39 0.40 0.39 0.38 0.37 0.34 0.29 0.28 0.29 0.29 0.27 0.25 0.24 0.23 0.22 0.20 0.17 0.15 0.14
0.16 0.15 0.17 0.13 0.17 0.15 0.13 0.14 0.17 0.18 0.19 0.23 0.23 0.23 0.26 0.30 0.31 0.30 0.28 0.27 0.25 0.26 0.28 0.26 0.26 0.28 0.29 0.30 0.29 0.29 0.29 0.29 0.29 0.31 0.30 0.31 0.31 0.32 0.32 0.32 0.33 0.33 0.33 0.33 0.32 0.33 0.33 0.32 0.32 0.34 0.35 0.38 0.40 0.42 0.42 0.42 0.41 0.41 0.40 0.42 0.45 0.44 0.43 0.42 0.40 0.39 0.39 0.39 0.40 0.40 0.39 0.38 0.36 0.31 0.29 0.30 0.30 0.28 0.26 0.25 0.24 0.23 0.21 0.18 0.16 0.14
0.18 0.18 0.20 0.17 0.14 0.18 0.16 0.16 0.17 0.16 0.18 0.20 0.21 0.24 0.26 0.27 0.27 0.27 0.26 0.25 0.26 0.27 0.27 0.26 0.26 0.27 0.28 0.30 0.29 0.29 0.30 0.30 0.30 0.30 0.30 0.31 0.31 0.32 0.33 0.33 0.34 0.34 0.34 0.34 0.33 0.34 0.33 0.33 0.32 0.32 0.32 0.34 0.39 0.41 0.43 0.42 0.41 0.39 0.41 0.45 0.44 0.43 0.42 0.41 0.40 0.39 0.39 0.39 0.40 0.40 0.40 0.38 0.37 0.34 0.30 0.31 0.31 0.29 0.27 0.26 0.25 0.23 0.21 0.19 0.17 0.15
0.16 0.18 0.16 0.13 0.15 0.14 0.08 0.10 0.13 0.14 0.16 0.19 0.18 0.22 0.26 0.26 0.25 0.26 0.26 0.26 0.26 0.27 0.27 0.28 0.28 0.29 0.29 0.30 0.30 0.29 0.29 0.31 0.31 0.31 0.32 0.32 0.32 0.32 0.32 0.32 0.34 0.34 0.34 0.33 0.34 0.35 0.33 0.33 0.31 0.31 0.31 0.31 0.35 0.40 0.41 0.42 0.41 0.41 0.42 0.42 0.42 0.41 0.41 0.41 0.40 0.40 0.40 0.40 0.41 0.41 0.41 0.39 0.38 0.35 0.32 0.32 0.32 0.30 0.28 0.27 0.26 0.24 0.22 0.20 0.17 0.15
0.12 0.18 0.13 0.13 0.13 0.10 0.08 0.10 0.12 0.13 0.14 0.18 0.20 0.20 0.21 0.22 0.24 0.26 0.27 0.27 0.26 0.26 0.27 0.27 0.29 0.29 0.30 0.30 0.31 0.31 0.30 0.31 0.31 0.31 0.32 0.32 0.33 0.33 0.32 0.33 0.34 0.35 0.35 0.35 0.36 0.36 0.35 0.33 0.32 0.31 0.30 0.30 0.33 0.36 0.39 0.40 0.40 0.40 0.40 0.40 0.40 0.40 0.39 0.39 0.39 0.40 0.41 0.41 0.42 0.41 0.41 0.40 0.39 0.37 0.34 0.32 0.32 0.31 0.29 0.28 0.27 0.25 0.23 0.21 0.18 0.16
0.16 0.17 0.11 0.12 0.10 0.10 0.12 0.12 0.14 0.15 0.13 0.15 0.18 0.20 0.22 0.24 0.24 0.25 0.27 0.27 0.27 0.26 0.25 0.26 0.28 0.28 0.29 0.28 0.29 0.29 0.28 0.29 0.30 0.31 0.30 0.31 0.32 0.32 0.33 0.33 0.34 0.34 0.34 0.34 0.34 0.35 0.34 0.33 0.31 0.30 0.29 0.29 0.32 0.34 0.35 0.36 0.38 0.39 0.39 0.39 0.40 0.39 0.38 0.38 0.38 0.39 0.40 0.42 0.42 0.41 0.42 0.41 0.40 0.39 0.36 0.32 0.32 0.32 0.30 0.28 0.27 0.26 0.24 0.23 0.20 0.17
0.15 0.11 0.14 0.13 0.10 0.08 0.07 0.08 0.14 0.12 0.10 0.11 0.16 0.22 0.25 0.26 0.26 0.25 0.26 0.26 0.26 0.26 0.25 0.25 0.25 0.27 0.28 0.29 0.29 0.29 0.27 0.27 0.28 0.29 0.29 0.30 0.30 0.31 0.33 0.33 0.34 0.33 0.33 0.34 0.34 0.34 0.33 0.32 0.31 0.29 0.28 0.28 0.29 0.30 0.32 0.33 0.34 0.35 0.36 0.38 0.40 0.40 0.39 0.39 0.39 0.39 0.40 0.41 0.41 0.41 0.41 0.40 0.40 0.39 0.37 0.34 0.32 0.32 0.30 0.29 0.29 0.27 0.25 0.23 0.22 0.19
0.12 0.13 0.14 0.12 0.11 0.09 0.11 0.15 0.19 0.20 0.18 0.18 0.22 0.25 0.27 0.28 0.28 0.28 0.28 0.28 0.28 0.27 0.27 0.26 0.25 0.25 0.24 0.25 0.28 0.28 0.28 0.28 0.27 0.28 0.28 0.28 0.29 0.30 0.31 0.32 0.32 0.32 0.32 0.31 0.30 0.29 0.29 0.30 0.29 0.28 0.26 0.25 0.27 0.28 0.29 0.30 0.31 0.30 0.31 0.33 0.34 0.36 0.38 0.38 0.38 0.38 0.38 0.39 0.40 0.41 0.40 0.40 0.39 0.39 0.37 0.35 0.33 0.32 0.30 0.28 0.29 0.28 0.26 0.25 0.23 0.20
Wind_Speed
7 7 7 5 5 6 6 6 6 7 7 8 9 9 10 11 12 12 12 14 13 14 15 14 15 17 18 19 20 21 20 20 22 22 22 23 23 23 23 23 23 24 25 25 25 25 25 25 25 25 26 26 27 27 28 29 30 31 31 32 32 33 33 33 34 34 35 35 35 35 35 36 36 37 37 38 39 41 42 43 44 44 45 46 47 48
7 7 7 6 5 6 7 6 7 8 9 9 9 10 11 11 12 13 12 14 14 14 16 16 17 19 18 19 20 21 20 20 21 21 22 22 23 23 23 24 24 25 25 25 26 26 25 25 25 26 26 26 27 27 28 29 30 31 31 32 32 33 33 33 34 34 35 35 35 35 35 35 36 37 37 38 39 41 42 43 43 44 45 46 47 48
8 7 7 7 6 7 8 8 8 8 9 10 10 11 12 12 13 14 13 15 15 15 17 17 19 21 21 20 20 20 19 19 20 20 22 23 23 24 24 24 25 25 26 26 26 26 25 25 25 26 26 27 27 28 29 29 30 30 31 32 32 33 33 34 34 35 35 35 35 35 35 35 36 37 37 39 40 40 42 42 43 44 45 46 47 48
7 7 7 7 7 8 9 9 9 9 10 10 10 11 13 13 14 14 15 16 16 16 17 19 20 21 21 20 19 19 19 20 21 21 22 23 24 25 25 25 25 25 26 26 26 26 26 26 26 26 27 27 27 28 29 29 30 30 31 32 32 33 33 34 34 35 35 35 35 35 35 36 36 37 37 38 39 40 41 42 43 44 45 46 47 48
7 7 7 7 8 9 9 10 10 10 11 12 11 11 13 14 13 14 15 16 17 17 17 20 21 21 20 19 19 19 19 21 21 21 23 23 24 25 25 26 25 25 26 27 27 27 26 26 27 27 27 27 28 28 29 29 30 30 31 32 32 33 34 34 35 35 35 35 35 35 35 36 36 36 37 38 39 40 41 42 42 44 45 45 46 48
8 8 7 8 10 10 9 10 10 9 11 13 12 12 12 13 14 16 17 17 17 17 17 19 20 19 20 20 20 20 20 21 21 22 23 24 24 25 25 26 26 26 26 27 27 27 27 27 27 28 28 28 28 29 29 29 30 30 30 31 32 33 34 34 35 35 35 35 35 35 35 35 36 36 37 38 39 40 41 42 42 43 44 45 46 48
8 8 8 8 9 10 10 11 11 10 11 13 13 13 13 13 15 16 17 16 16 17 18 19 18 19 22 21 20 21 21 21 22 22 24 25 25 25 25 26 26 26 27 27 28 28 28 28 28 28 28 28 29 29 29 29 30 30 30 31 32 33 34 34 35 35 35 35 35 35 35 35 36 36 37 37 38 39 40 41 42 43 44 45 46 48
8 9 9 10 10 11 11 12 12 11 12 14 14 13 13 14 15 16 16 16 17 18 19 19 18 19 22 21 21 22 22 22 22 23 24 25 25 25 26 26 26 27 27 28 28 28 28 29 29 29 29 29 29 29 29 29 30 30 30 31 32 33 33 34 34 35 35 35 35 35 35 35 35 36 36 37 38 39 40 41 42 43 44 45 46 47
9 9 10 10 11 11 12 12 11 11 13 15 14 14 15 15 16 16 16 16 18 19 20 20 19 19 21 22 23 23 22 22 23 23 24 25 25 26 27 27 27 27 28 28 29 29 29 29 30 30 30 30 29 29 29 29 30 30 30 31 32 33 33 34 34 35 35 35 35 35 35 35 35 35 36 37 38 39 40 41 42 43 44 45 46 47
11 11 11 10 11 12 13 13 12 12 15 15 14 16 17 17 17 17 16 16 18 18 18 19 19 19 21 24 23 22 21 22 23 23 24 25 26 26 27 27 27 28 29 29 29 30 30 30 31 31 31 30 30 29 29 29 30 30 30 30 31 32 33 34 34 35 35 35 35 35 35 35 35 36 36 36 37 38 39 41 42 43 44 45 46 47
12 12 12 12 12 13 13 14 14 14 15 15 15 17 18 18 18 18 17 16 17 18 18 19 19 19 21 24 22 21 22 22 22 24 25 26 27 27 27 28 28 29 30 30 30 30 31 31 31 31 31 31 30 30 29 30 30 30 30 30 31 32 33 34 34 35 35 36 35 35 35 35 35 36 36 37 37 38 39 40 42 43 44 45 46 47
14 13 13 13 13 13 13 14 15 16 16 15 16 18 18 19 19 18 18 17 16 18 18 19 20 18 20 23 23 22 24 23 21 24 26 27 29 29 28 28 29 29 30 30 30 31 31 31 31 31 31 31 30 30 30 30 30 29 30 30 31 32 33 34 34 35 36 36 35 35 35 35 36 36 36 36 37 38 39 40 41 43 44 45 46 47
14 14 14 14 14 14 14 15 17 17 17 17 17 18 18 19 19 18 18 18 17 18 19 20 21 20 21 24 25 25 26 24 22 23 25 27 29 29 29 30 30 30 31 31 31 31 31 31 31 31 31 31 30 30 30 29 29 29 30 30 31 32 33 34 34 35 36 36 36 36 35 36 36 36 36 36 37 38 38 40 41 42 43 45 46 47
16 15 15 14 16 15 14 16 18 18 18 18 17 17 17 17 18 19 19 19 20 20 21 21 21 21 23 25 25 24 24 24 24 25 27 28 29 30 31 31 31 31 31 32 31 32 31 31 31 31 31 31 31 30 30 29 29 29 30 30 31 32 33 34 34 35 36 36 36 36 36 36 36 36 36 36 37 37 38 39 41 42 43 44 46 47
16 16 15 15 16 16 16 17 17 18 19 18 17 17 17 16 17 19 19 19 22 23 23 22 20 20 22 26 25 23 24 26 27 27 28 29 30 30 31 31 31 32 32 32 32 32 32 31 31 31 31 31 31 30 29 29 29 29 30 30 31 32 33 33 34 35 36 36 36 37 37 37 37 36 36 36 36 37 38 39 40 42 43 44 45 47
16 17 17 17 18 16 16 17 17 18 18 18 17 17 18 17 17 18 19 19 22 24 23 21 20 21 24 27 26 24 25 26 27 27 28 30 30 30 32 32 32 32 32 32 33 32 32 32 31 31 31 31 31 30 30 29 29 29 30 30 31 32 32 33 34 35 36 36 37 37 37 37 37 36 36 36 36 37 37 39 40 41 43 44 45 47
17 18 18 18 18 16 16 18 19 19 19 19 19 19 19 18 18 18 20 21 21 22 23 22 23 26 27 26 25 25 26 27 27 29 30 31 31 31 32 33 33 33 33 34 33 33 32 32 32 32 32 31 31 30 30 29 29 29 30 30 31 32 32 33 34 35 36 37 37 37 37 37 37 36 36 36 36 36 37 38 40 41 42 43 45 46
17 20 19 17 17 17 18 19 20 20 19 19 20 20 19 19 19 19 21 22 21 21 23 23 25 28 26 24 25 26 26 27 29 30 31 32 32 32 33 34 34 35 35 35 34 33 33 32 32 32 32 31 31 30 30 30 29 29 30 30 31 32 33 33 34 35 36 37 37 38 38 37 37 36 36 36 36 36 37 38 39 40 42 43 44 46
18 20 20 17 17 19 20 20 21 21 20 20 20 20 19 19 20 20 21 22 22 23 24 25 27 27 24 23 25 26 27 28 30 30 31 32 32 33 34 35 36 36 35 35 35 34 33 33 32 32 32 31 31 31 30 30 30 30 30 31 31 32 33 34 34 35 36 37 37 38 37 37 37 36 36 36 36 36 37 38 39 40 41 43 44 45
19 19 19 19 18 21 21 20 21 22 21 21 21 21 21 20 20 21 21 21 22 23 24 26 28 27 24 23 25 26 28 29 31 31 31 31 32 34 35 36 37 37 36 36 36 35 34 33 33 32 32 31 31 30 30 30 30 30 30 31 31 32 33 34 35 35 36 37 38 37 37 37 36 36 36 36 35 36 36 37 38 40 41 42 44 45
19 18 20 21 21 21 21 21 21 21 21 21 21 22 22 21 22 22 23 22 21 22 23 24 27 29 26 23 25 27 29 30 31 31 31 31 34 36 36 37 38 38 38 37 36 36 35 34 33 33 32 32 31 30 30 30 30 30 30 31 31 32 33 34 35 35 36 37 37 37 37 36 36 36 36 35 35 36 36 37 38 39 41 42 43 44
20 20 21 23 23 22 23 22 22 21 20 21 21 22 22 22 22 23 24 24 23 23 23 22 26 31 28 25 26 28 29 31 32 31 31 33 36 37 37 37 38 39 39 38 37 36 35 34 33 33 32 31 31 30 30 30 30 30 30 31 31 32 33 34 35 35 36 37 37 37 36 36 36 35 35 35 35 35 36 37 37 39 40 41 43 44
21 21 22 24 24 23 23 22 21 20 20 21 22 23 23 23 22 22 24 26 24 25 25 23 26 32 30 27 28 29 29 32 33 32 33 35 37 37 37 37 38 39 39 39 38 37 36 35 34 33 32 31 31 30 30 30 30 30 30 31 31 33 33 34 35 35 36 36 37 37 36 35 35 35 35 35 35 35 36 36 37 38 39 41 42 43
23 22 24 26 27 25 23 22 21 22 22 22 24 24 24 25 25 24 25 26 26 26 26 25 27 33 32 29 29 30 31 33 33 33 34 36 37 38 38 38 39 40 40 39 38 38 36 35 33 32 31 31 31 30 30 30 30 30 30 31 31 33 33 34 35 35 36 36 37 36 35 35 34 35 35 35 35 35 35 36 37 38 39 40 42 43
24 23 24 27 28 27 26 25 25 26 26 26 27 27 26 26 25 26 26 27 27 28 26 25 29 34 34 31 30 31 32 34 35 34 33 34 37 38 38 39 40 41 41 40 39 38 36 35 33 32 31 31 31 30 30 30 30 30 30 31 32 32 33 34 34 35 35 36 36 36 35 34 34 34 34 35 35 35 35 36 36 37 39 40 41 42
25 25 25 25 25 26 27 28 29 30 30 29 29 29 29 27 26 27 28 27 28 29 27 27 32 38 38 35 35 34 33 35 36 35 34 34 36 37 39 41 42 41 42 41 40 39 37 35 34 33 32 31 31 30 30 30 30 30 30 31 31 32 33 34 34 34 35 35 35 35 34 33 33 34 34 34 34 34 35 35 36 37 38 39 41 42
26 27 26 25 26 27 28 30 30 30 31 32 31 30 29 28 28 28 27 28 29 29 30 33 36 39 40 38 36 36 36 36 37 37 37 37 38 39 40 42 42 41 42 41 39 38 37 36 34 33 32 31 31 30 30 30 30 30 30 31 31 32 33 33 34 34 35 35 35 35 34 33 33 33 34 34 34 34 35 35 36 37 38 39 40 41
27 29 29 27 29 30 31 32 31 29 31 32 32 32 30 28 28 27 28 30 29 29 33 36 34 35 38 37 36 38 37 37 37 38 39 40 40 42 43 43 42 42 41 40 39 38 37 36 35 33 32 32 31 30 30 30 30 30 30 31 31 32 32 33 33 34 34 34 34 34 33 33 33 33 34 34 34 34 34 34 35 36 37 38 39 40
27 30 30 29 31 32 31 33 32 30 31 31 32 34 32 29 27 28 31 31 29 30 35 36 34 34 37 37 37 38 37 37 38 39 39 40 41 42 43 43 42 42 41 40 39 38 37 36 35 33 32 32 31 30 30 29 30 30 30 31 31 31 32 32 32 33 33 34 34 34 33 33 33 33 34 33 33 33 34 34 34 35 37 38 39 40
28 30 30 29 32 33 31 32 31 30 31 32 34 34 30 28 28 29 32 31 29 33 37 36 36 37 37 37 38 39 39 38 38 39 40 40 41 42 43 42 41 41 40 40 40 39 38 37 35 34 33 32 31 30 29 29 29 29 30 30 30 31 31 32 32 32 33 33 33 33 33 33 33 33 33 33 33 33 33 33 34 35 36 37 38 39
28 30 29 29 32 34 31 30 30 30 32 35 35 32 28 28 29 30 30 30 30 33 35 34 36 37 36 36 37 38 38 38 38 39 40 40 41 42 42 42 41 40 40 40 41 40 38 37 36 34 33 32 31 30 29 29 29 29 30 30 30 30 31 31 31 31 32 32 33 33 33 33 33 33 33 33 32 33 33 33 33 34 35 36 37 38
28 29 29 28 31 32 30 30 32 33 33 32 32 31 29 28 28 27 27 27 28 31 33 33 34 35 35 36 36 38 39 38 39 40 41 41 43 44 43 42 41 40 40 41 41 40 39 38 37 36 34 33 31 30 30 29 28 29 29 30 30 30 30 31 31 31 31 32 32 32 32 33 33 33 32 32 32 32 33 33 33 33 34 36 36 37
27 28 29 28 29 31 31 31 33 34 31 28 28 28 27 27 27 27 27 27 28 29 32 33 33 34 35 37 38 39 40 40 42 42 42 43 45 45 43 41 40 40 40 41 41 41 40 39 37 36 35 33 32 31 30 29 28 29 30 29 29 30 30 30 30 30 31 31 31 32 32 33 33 32 32 32 32 32 32 32 33 33 34 35 36 37
26 26 28 27 27 30 32 32 32 30 27 27 27 25 25 27 28 27 29 30 29 29 32 33 33 35 37 38 39 40 41 43 44 44 44 44 44 43 42 40 40 41 41 41 41 41 40 39 38 37 36 34 32 31 30 29 29 29 29 29 29 29 30 30 30 30 30 30 31 31 32 32 33 32 32 31 31 31 32 32 32 33 33 34 35 36
25 25 26 26 26 30 31 31 29 27 27 30 29 24 25 27 26 27 31 32 30 31 33 34 34 37 39 39 39 41 43 44 46 46 45 42 41 40 41 41 41 42 42 42 42 42 41 40 39 38 36 35 33 31 29 29 29 29 29 29 29 29 30 30 30 30 30 30 30 31 31 32 32 32 31 31 31 31 32 32 32 32 33 33 34 35
23 24 25 26 27 28 29 28 28 30 33 33 29 25 27 28 26 28 33 35 33 31 31 32 35 38 40 41 41 42 44 45 46 44 42 40 39 39 40 42 43 43 43 43 43 42 42 41 40 39 37 35 32 30 29 29 28 28 29 29 29 29 30 30 30 30 29 30 30 30 31 32 32 31 31 31 30 31 31 32 32 32 32 33 34 34
23 24 26 27 26 26 28 29 30 33 34 31 26 27 28 27 27 29 33 36 35 29 27 32 36 39 41 42 43 43 43 44 43 40 39 39 40 41 41 42 43 44 43 43 42 42 42 42 41 40 38 34 32 30 30 29 28 28 29 29 29 30 30 30 30 29 29 30 30 30 31 32 32 31 31 30 30 30 31 32 32 32 32 32 33 34
24 25 26 26 27 27 27 29 29 30 30 30 28 29 29 28 29 31 34 36 32 27 29 35 39 41 42 43 43 43 42 42 40 38 39 42 42 42 42 42 42 42 42 42 42 42 42 42 42 40 37 34 31 30 30 29 29 29 29 29 29 30 30 30 30 30 30 30 30 30 31 32 32 31 31 30 30 30 31 31 32 32 32 32 32 33
27 27 25 25 28 28 26 27 27 26 29 31 31 29 29 30 32 33 34 34 31 31 37 39 40 42 43 42 43 42 40 39 38 38 41 43 42 42 42 42 42 42 42 41 41 41 42 42 40 38 35 33 31 31 30 30 29 29 29 29 30 30 30 30 30 30 30 30 30 31 31 32 32 31 31 30 30 30 31 31 32 32 31 31 32 32
28 28 27 26 28 28 26 27 27 28 31 32 30 29 31 33 33 32 32 33 34 38 41 41 41 42 42 42 41 39 36 36 37 40 42 43 42 42 41 41 42 42 42 42 42 42 41 40 38 36 33 32 32 32 31 30 30 30 30 30 30 30 31 31 31 30 30 30 31 31 31 32 32 31 31 31 30 30 30 31 31 31 31 31 31 32
28 27 27 27 27 27 27 28 29 30 31 30 29 31 34 34 32 31 33 36 39 41 42 41 41 42 42 41 40 37 36 37 38 40 42 42 42 42 42 42 42 42 42 42 42 41 40 39 37 35 34 33 33 32 31 31 31 31 31 30 30 31 32 32 31 30 30 31 31 31 32 32 32 31 31 31 30 30 30 30 31 31 31 30 30 31
27 27 27 27 27 27 27 27 30 31 29 28 30 34 34 33 32 33 37 40 41 41 41 41 42 42 41 40 39 38 39 40 39 40 41 41 41 42 42 42 42 42 42 41 41 40 39 38 37 36 35 34 33 32 32 31 32 32 31 31 32 33 33 32 31 31 31 31 31 31 32 32 32 31 31 31 31 30 29 30 30 31 30 30 30 30
26 26 27 27 26 28 28 27 28 29 29 30 34 34 32 33 36 38 40 41 40 39 40 40 41 41 40 40 40 40 40 40 39 39 39 40 40 40 40 41 41 41 41 41 41 40 39 38 38 37 36 35 34 33 33 32 33 33 33 33 34 34 33 32 32 31 31 31 31 32 32 32 32 32 31 31 31 30 29 29 30 30 30 29 29 29
26 25 27 28 27 27 29 27 27 30 32 32 33 32 33 36 38 38 39 40 39 39 39 40 40 40 38 39 40 40 40 40 40 39 40 40 40 40 40 41 41 41 41 41 41 41 40 40 39 39 39 37 36 35 34 34 34 34 34 35 35 34 34 33 32 32 31 31 31 32 32 32 32 32 32 31 31 30 29 29 29 29 29 29 28 28
26 25 27 29 27 27 29 30 31 35 36 33 31 33 36 38 37 36 37 38 38 39 39 39 40 40 39 39 39 40 40 40 40 41 41 41 41 42 42 42 42 42 43 43 43 43 42 42 42 41 41 39 37 36 36 35 35 35 36 36 36 35 34 34 33 32 32 31 31 32 32 32 32 32 32 31 31 30 30 29 28 28 28 28 27 27
28 26 27 29 29 29 31 31 31 35 36 34 33 35 36 36 35 35 35 36 37 38 38 39 39 40 39 39 40 40 41 41 42 43 42 42 43 43 43 44 44 44 44 44 44 44 44 44 43 43 43 42 39 38 37 37 37 37 38 37 36 35 35 34 33 33 32 32 32 31 31 32 32 32 32 31 31 30 30 29 28 28 27 27 27 26
29 27 27 29 30 31 31 31 31 34 36 35 36 37 35 34 35 36 35 35 37 38 38 38 38 39 40 40 41 42 43 43 44 45 45 45 45 45 45 45 45 46 46 46 46 46 46 45 45 45 45 44 42 40 39 38 38 38 39 37 36 36 35 35 34 34 33 33 32 32 31 31 32 32 31 31 31 30 30 29 28 27 27 26 26 25
29 29 29 30 31 31 32 34 36 39 38 36 35 35 34 35 38 38 37 37 38 39 39 39 39 39 40 41 42 43 45 45 46 47 47 47 47 47 47 47 47 48 48 48 47 47 47 46 46 46 46 46 44 42 40 39 39 39 38 37 37 36 36 35 35 35 35 34 33 32 32 32 31 31 31 31 31 30 30 29 28 27 26 26 26 25
29 30 31 32 33 33 34 35 36 39 40 36 34 34 36 38 40 39 38 39 40 40 41 41 41 40 41 42 43 44 46 46 47 47 48 49 49 48 48 48 49 49 49 49 49 48 48 48 48 48 48 47 45 43 41 40 39 39 38 37 37 36 36 36 36 36 36 35 34 33 32 32 32 32 31 31 31 30 30 29 28 27 26 26 26 25
30 31 32 33 35 36 36 35 34 36 39 39 38 38 40 42 41 40 40 41 42 42 43 44 44 44 43 43 44 45 46 47 47 48 48 48 48 49 49 50 50 50 50 50 50 49 49 49 49 49 48 47 46 44 41 40 40 39 37 37 36 36 36 36 36 36 36 36 35 34 33 32 32 32 31 31 30 30 30 29 28 27 26 25 25 24
31 32 33 33 35 38 39 38 37 37 39 42 43 43 43 42 41 41 42 43 44 45 45 46 47 47 48 47 47 46 46 47 48 49 49 49 49 50 50 50 50 51 51 51 51 51 50 50 49 49 48 47 45 43 41 40 40 38 37 36 36 36 36 35 35 36 36 36 36 35 34 33 32 31 31 31 30 29 29 28 28 28 26 25 24 24
Wind_Direction
38 38 27 15 359 352 348 355 3 358 360 359 354 351 343 339 337 337 340 341 344 342 335 333 331 329 329 330 328 329 338 339 334 335 335 335 336 335 334 332 331 330 330 331 330 327 325 323 323 323 323 324 325 327 328 328 329 330 331 331 331 331 331 330 330 329 329 329 329 329 330 330 331 332 333 333 334 334 335 336 337 338 339 340 340 340
34 34 13 358 354 354 354 358 2 359 358 354 350 344 339 335 332 334 338 339 341 338 336 338 333 325 325 327 327 329 336 335 332 334 334 335 336 335 334 332 332 333 334 334 331 328 327 324 324 324 324 324 325 327 327 328 329 330 331 331 331 331 331 330 330 329 328 329 329 329 329 329 330 331 332 333 333 334 335 336 336 337 339 339 340 340
25 17 353 358 10 12 8 3 0 357 355 350 346 342 336 334 332 333 336 338 339 335 333 339 335 325 322 323 322 324 329 329 330 334 334 334 335 334 333 333 333 334 334 334 333 331 328 326 325 324 324 324 324 326 327 328 329 330 330 331 331 331 331 331 330 329 328 328 328 328 328 328 329 330 331 331 332 333 334 335 336 337 338 339 340 340
17 360 350 2 8 9 5 357 357 354 349 346 344 341 334 334 335 332 334 335 335 333 331 334 332 326 325 326 322 322 327 328 330 332 331 332 331 331 333 333 333 333 332 334 334 333 330 328 326 325 324 324 325 326 326 328 328 329 330 331 331 331 331 331 330 330 329 328 328 327 327 327 328 329 330 331 332 333 334 335 336 337 338 339 339 340
5 353 1 7 357 358 359 353 353 350 341 338 338 338 333 331 330 327 330 333 331 332 332 333 333 330 333 335 330 330 332 329 330 332 330 330 330 331 332 332 332 332 332 332 332 333 332 328 326 325 325 325 324 324 325 327 328 328 330 330 331 331 332 332 331 331 330 329 328 327 327 327 328 328 330 331 332 333 334 335 336 337 337 338 339 339
354 347 351 355 351 353 355 346 344 342 337 335 334 332 329 328 326 326 331 334 334 333 333 337 337 335 335 333 329 333 333 328 330 332 329 329 330 331 331 331 332 332 332 331 331 332 331 328 327 326 325 324 323 323 325 327 327 328 329 331 332 332 332 332 331 331 331 329 328 328 327 328 328 329 330 331 332 333 334 334 335 336 337 338 339 339
347 345 341 341 343 347 347 338 332 337 339 336 333 331 332 333 329 326 329 332 331 329 331 335 333 330 332 330 328 333 333 327 328 330 327 327 329 330 330 331 332 332 332 332 330 331 330 329 328 326 325 324 323 324 326 327 327 328 329 331 332 332 332 332 332 332 331 330 329 328 328 328 328 328 329 331 332 332 333 334 335 336 337 338 339 339
336 338 338 340 341 340 337 330 326 335 337 330 331 335 335 334 329 326 328 326 325 326 328 331 328 326 328 328 329 333 332 327 327 327 327 328 328 328 329 330 331 331 332 332 331 330 330 329 328 326 325 324 324 325 326 326 328 328 329 330 332 332 333 332 332 333 332 331 330 329 328 328 328 329 329 331 332 332 333 334 335 336 337 338 339 339
329 327 325 332 337 330 323 322 324 330 329 323 327 333 330 329 329 330 329 324 326 330 327 328 330 328 324 325 330 334 332 328 326 325 327 327 327 328 328 328 329 331 332 332 331 330 329 328 327 326 326 325 325 325 325 326 328 328 329 330 331 332 332 332 333 333 333 332 330 330 329 329 329 329 330 331 332 332 333 334 335 336 337 338 339 339
325 322 318 325 328 320 317 322 322 323 323 323 327 332 331 332 332 331 328 325 328 329 323 324 330 329 325 325 330 333 331 328 325 325 327 326 327 328 327 327 328 330 332 331 330 329 328 327 327 327 327 326 325 325 325 327 328 328 329 329 330 331 332 333 333 333 334 333 331 330 330 329 329 330 330 331 332 333 333 334 335 336 337 338 339 340
323 321 317 320 320 318 320 323 321 320 321 323 326 328 329 329 329 328 326 327 329 326 322 323 327 329 327 327 329 328 328 327 326 326 327 326 326 326 326 326 327 329 331 331 330 328 327 326 327 327 327 326 326 325 325 326 327 328 328 328 329 331 332 332 333 334 334 334 333 332 331 330 330 330 331 331 332 333 333 334 335 336 337 338 339 340
324 321 315 316 317 320 324 322 322 322 321 321 321 323 325 324 326 327 326 329 328 323 322 323 326 327 322 323 327 326 324 325 325 325 326 325 325 325 325 325 326 328 329 329 329 328 327 326 326 326 326 326 326 325 324 325 326 327 327 328 329 330 331 332 333 333 334 334 333 333 332 331 331 331 331 331 332 333 333 334 335 336 337 338 339 340
322 316 315 316 315 318 319 319 322 322 321 321 319 323 325 323 326 325 323 325 321 318 322 324 326 323 315 317 322 322 320 321 322 323 323 323 323 323 323 325 326 327 327 327 327 327 326 326 326 325 326 326 325 324 323 324 326 326 326 327 328 329 331 332 332 333 333 334 334 333 332 332 331 331 331 331 332 333 334 335 335 336 337 338 339 340
322 316 318 318 314 315 314 315 319 319 320 320 318 321 323 323 326 321 318 321 319 317 320 322 323 321 319 321 320 317 317 320 322 322 321 321 322 322 323 324 325 326 326 326 326 325 325 325 325 325 325 325 324 323 323 323 324 325 326 326 327 329 330 331 332 332 333 334 334 333 332 332 332 331 331 331 332 333 334 335 336 336 337 338 339 340
321 315 315 316 313 314 313 313 316 317 320 318 314 317 318 317 318 315 314 317 317 318 319 319 321 321 322 323 321 318 318 320 322 322 323 324 325 324 324 324 324 324 325 325 325 325 323 323 324 324 324 323 323 322 322 322 323 324 325 326 327 328 330 330 331 332 333 334 334 333 333 333 332 331 331 332 332 333 334 335 336 337 338 339 339 340
318 311 311 314 312 313 313 311 315 319 319 314 313 316 314 312 313 312 311 311 315 319 319 318 317 318 320 320 321 324 324 324 325 325 326 328 327 327 325 323 323 324 324 325 325 324 323 322 322 322 323 323 322 322 321 321 322 323 324 325 326 328 329 330 330 331 332 333 333 333 333 333 332 332 331 332 332 333 335 336 336 337 338 339 340 340
316 312 313 315 313 314 313 310 313 316 314 313 313 311 309 311 314 313 311 314 319 318 317 318 316 320 325 323 323 329 328 327 328 328 328 328 327 327 325 324 324 324 324 324 324 323 322 321 321 321 322 321 321 321 320 320 320 322 323 324 326 327 328 329 330 331 332 333 333 333 333 333 332 332 332 331 332 333 335 336 337 337 338 339 340 341
314 312 313 315 311 312 313 312 314 315 312 312 310 308 309 313 315 314 313 317 320 315 314 317 316 320 325 322 324 329 327 326 326 327 327 326 326 326 324 324 324 324 324 323 323 323 322 321 320 320 321 320 320 320 319 319 320 321 323 324 325 326 327 328 329 331 332 333 333 333 333 333 333 332 332 331 331 333 335 336 337 338 339 339 340 341
316 312 313 314 311 312 314 313 313 314 313 311 308 308 311 310 310 312 313 315 316 313 313 316 318 320 319 316 322 324 322 322 323 324 325 324 323 323 323 324 324 325 325 324 323 322 321 320 319 319 319 319 319 319 319 319 319 320 322 323 325 326 327 329 329 330 332 333 334 334 333 333 333 333 332 331 331 333 334 336 337 338 339 339 340 341
316 313 310 312 311 312 314 311 309 312 314 312 311 311 310 308 306 308 310 310 310 311 312 316 320 321 317 316 320 320 317 318 320 322 323 321 321 321 321 323 324 325 325 324 323 322 320 319 318 317 318 318 318 318 318 319 319 320 321 323 324 326 327 328 329 330 331 333 334 334 333 333 333 333 333 331 331 332 334 336 337 338 339 340 341 342
316 311 306 310 313 312 311 309 306 307 309 310 310 308 308 308 307 307 308 307 308 309 310 314 316 316 318 320 318 316 315 316 318 320 320 319 320 320 320 322 323 324 324 323 323 321 319 318 317 316 317 317 318 318 318 319 319 320 321 322 324 325 327 328 328 330 331 332 333 333 333 332 333 334 333 332 331 332 334 336 337 338 339 340 341 342
314 309 305 308 312 310 308 308 308 306 306 306 305 304 305 306 306 307 307 306 306 305 305 308 309 311 318 321 316 314 314 314 318 319 319 319 319 319 319 320 322 323 323 323 322 321 319 317 316 315 315 316 317 317 318 318 319 319 320 322 323 325 326 327 328 329 331 332 333 333 332 332 333 334 333 332 331 332 334 336 337 338 339 340 341 342
312 310 307 306 307 308 308 310 311 308 307 308 307 306 306 305 304 303 303 304 305 304 304 306 305 308 316 319 314 313 314 315 319 319 318 318 318 318 319 320 322 323 322 322 321 320 319 316 315 314 313 314 315 316 317 318 318 319 319 321 323 324 326 327 328 329 330 331 332 332 332 332 332 334 334 333 332 332 334 336 337 339 340 341 342 342
312 310 309 306 307 310 310 311 312 311 310 309 307 307 305 304 303 300 298 300 302 301 302 304 302 305 314 319 315 314 315 317 318 318 316 317 317 318 319 320 322 323 323 322 321 320 318 316 315 314 313 313 314 315 317 317 317 318 319 321 322 323 325 327 328 329 330 330 331 332 332 331 332 333 334 334 333 333 334 336 338 339 340 341 342 343
309 308 310 310 311 311 311 311 311 310 309 306 305 306 304 305 306 303 300 301 301 298 297 299 299 303 312 318 314 313 317 317 316 316 316 316 317 318 318 319 321 322 322 322 321 320 319 317 315 314 312 312 313 314 316 316 317 317 318 320 321 323 325 327 328 329 329 330 331 332 332 331 331 333 334 334 334 334 334 336 338 339 340 341 342 343
307 306 308 309 308 307 306 306 308 308 307 305 306 305 303 303 302 301 301 300 299 298 296 296 297 302 310 314 311 313 316 316 314 315 316 316 316 317 317 319 320 321 321 321 320 320 319 318 316 314 312 311 312 313 315 315 316 317 318 319 320 322 324 326 327 328 328 329 331 332 332 331 331 332 333 334 335 335 335 336 338 339 340 341 342 343
308 306 305 302 299 299 300 301 304 307 305 304 304 303 301 301 300 301 299 296 296 298 296 296 297 301 307 311 311 313 316 315 314 316 317 317 317 317 318 319 320 320 321 321 321 320 320 318 316 314 312 310 311 312 313 314 315 316 317 318 319 321 323 325 326 327 328 329 330 332 332 331 331 332 333 334 335 335 336 337 338 339 340 342 343 343
308 305 303 300 298 298 300 301 302 304 302 301 303 302 300 300 299 297 292 293 299 300 297 300 301 301 305 310 311 313 314 314 314 315 316 317 317 318 319 319 319 320 321 321 321 320 320 319 317 314 312 310 310 311 312 314 315 316 316 318 319 320 322 324 326 327 328 329 330 332 332 332 332 332 333 334 335 335 336 337 338 339 341 342 343 344
306 303 302 302 301 300 300 300 300 301 301 301 302 301 301 300 295 291 290 294 298 295 295 302 304 303 306 310 311 311 312 313 313 314 315 316 317 318 318 318 319 319 321 321 321 320 319 319 317 315 312 310 309 309 311 313 314 315 316 317 318 320 321 323 325 326 327 329 330 332 332 333 332 333 333 334 335 336 336 337 338 340 341 342 343 344
304 303 303 303 302 302 300 300 301 302 302 303 303 302 301 298 293 292 294 298 297 294 296 302 303 304 307 309 308 309 310 312 313 313 314 315 316 317 317 317 317 318 320 321 320 320 319 318 317 315 313 311 309 308 310 312 313 314 315 316 318 319 320 323 324 326 327 328 330 332 332 333 333 332 333 334 335 336 337 337 338 340 341 342 343 344
305 304 305 305 305 305 304 306 306 303 302 304 304 304 302 299 299 299 300 302 301 299 302 303 304 305 307 307 308 309 310 312 313 313 314 315 316 317 317 316 316 317 318 319 320 320 319 318 317 315 313 310 308 307 309 310 312 313 314 315 317 318 320 322 323 325 327 329 330 332 332 333 333 332 333 334 334 336 337 337 338 339 341 343 344 344
308 307 309 310 308 306 309 312 309 305 304 304 306 307 305 302 303 302 302 303 303 303 306 306 306 307 308 311 312 312 312 314 314 314 316 316 316 316 315 315 316 316 317 318 319 319 319 318 317 315 312 309 307 306 307 309 311 312 313 314 316 318 320 321 322 325 327 329 330 331 332 333 333 332 333 333 334 336 337 337 338 339 341 343 344 344
310 309 310 311 307 306 311 313 310 309 310 308 309 310 307 305 304 304 305 305 304 306 308 306 305 308 312 314 315 314 314 315 315 316 317 316 314 314 314 315 315 315 316 318 318 319 318 318 316 314 311 308 306 305 304 306 308 309 311 313 315 317 318 320 322 324 326 328 330 331 332 332 332 332 333 333 334 335 337 337 337 338 340 342 344 344
313 312 310 310 307 307 312 313 312 313 310 308 310 310 308 307 305 303 305 306 306 306 306 305 306 309 311 313 313 313 313 313 314 315 316 315 313 313 314 315 315 315 316 317 317 317 318 318 316 314 311 308 305 304 304 305 306 308 311 313 314 316 317 319 321 323 325 327 329 330 331 332 332 332 332 333 334 335 336 337 337 338 340 342 343 344
314 313 311 311 308 308 313 316 315 310 305 307 312 310 309 309 305 301 304 306 308 306 303 303 304 306 308 310 310 310 310 311 313 314 314 314 314 314 314 315 316 316 316 316 317 317 318 318 317 314 311 308 305 303 303 304 305 308 310 312 313 315 317 318 319 321 323 326 328 329 330 330 331 332 332 333 334 335 336 337 337 338 339 341 343 344
315 314 312 311 309 310 314 315 311 306 307 311 314 312 312 312 310 308 307 308 311 309 302 301 303 306 308 310 310 311 310 310 312 313 314 314 315 315 315 315 316 316 316 316 316 317 317 317 317 315 312 308 305 302 302 302 304 307 309 310 312 313 315 317 318 320 322 324 326 328 329 329 330 331 332 332 333 334 335 336 336 337 338 340 342 343
318 316 314 312 311 312 311 309 307 308 311 314 314 313 313 311 311 312 310 310 314 312 305 305 308 310 311 311 312 313 312 312 312 314 315 315 316 316 315 316 316 316 316 316 316 316 316 317 316 315 312 308 304 301 300 302 303 306 308 309 310 312 314 315 316 318 320 323 325 327 327 328 328 329 331 331 332 333 335 335 336 336 337 338 340 342
322 318 316 313 313 314 313 311 312 312 311 313 314 313 311 310 312 314 311 311 315 313 309 310 312 312 312 312 313 314 315 315 315 315 317 317 318 318 318 318 319 319 318 318 316 316 316 316 316 315 312 308 303 300 300 301 302 304 306 307 309 311 313 313 314 316 319 321 324 325 326 327 327 328 329 330 331 332 333 335 335 336 336 337 339 341
326 322 320 316 314 315 313 311 311 309 309 314 316 313 311 312 314 316 312 309 311 313 314 314 313 313 313 313 314 316 317 318 317 316 318 319 320 321 321 321 321 321 321 320 319 317 317 317 316 315 313 309 304 301 300 300 301 303 304 305 307 309 311 311 313 315 317 319 322 324 325 326 326 326 327 328 329 330 332 333 334 335 336 336 338 340
327 325 323 318 315 315 313 310 309 309 311 316 316 314 315 315 315 316 312 309 313 316 317 316 315 314 315 315 316 317 317 317 316 316 318 319 319 321 322 322 322 322 322 321 321 319 319 318 317 315 313 309 306 304 303 301 301 302 302 304 306 307 308 309 312 314 316 318 320 322 324 325 325 325 326 327 328 329 330 332 333 334 334 335 337 338
328 325 323 320 318 317 314 311 311 312 315 316 315 315 317 316 316 316 312 312 317 318 318 317 316 316 316 316 316 315 314 314 314 314 317 319 319 320 321 321 322 322 322 322 323 323 322 321 319 316 313 311 309 307 305 302 301 300 300 303 304 304 305 308 311 312 313 315 318 320 322 323 324 323 324 326 326 327 329 330 332 332 333 334 335 337
329 327 326 324 322 320 317 314 314 315 317 317 315 315 317 318 316 313 312 314 317 316 316 316 316 316 316 316 315 313 313 314 315 316 317 318 319 320 321 321 322 323 323 324 325 325 324 323 322 319 316 313 311 308 305 303 299 298 300 301 301 302 305 308 309 310 311 313 315 317 320 322 322 322 322 324 325 326 327 328 330 331 332 333 334 335
329 329 328 326 324 324 321 319 319 318 318 319 318 317 317 317 315 313 313 315 316 315 315 316 316 316 316 315 314 314 314 315 316 317 318 318 319 320 321 322 322 323 323 324 324 325 324 323 322 321 318 316 312 308 305 302 299 298 299 298 298 301 304 306 306 307 309 310 312 314 317 319 320 320 320 322 324 324 324 326 328 329 330 331 332 334
331 330 328 326 326 326 322 320 320 318 317 320 321 317 315 315 314 314 315 315 316 316 315 315 316 317 316 314 315 315 315 315 316 316 317 318 319 319 320 321 321 321 322 322 323 323 323 321 320 319 318 316 313 309 305 301 299 298 297 297 298 301 303 303 304 305 306 307 309 311 314 316 318 318 318 319 322 323 323 324 326 327 327 328 330 332
330 329 328 326 326 325 320 318 319 318 318 320 320 317 316 317 317 316 315 315 316 317 317 316 316 316 315 314 313 314 314 314 315 315 316 317 317 318 318 318 319 319 320 320 320 321 321 320 318 317 317 316 314 310 306 302 299 297 296 297 298 300 300 300 301 303 304 305 306 308 310 313 315 316 316 317 319 320 321 322 323 324 325 326 327 329
329 330 330 329 328 326 323 321 319 318 319 321 321 320 320 320 321 320 319 318 318 318 318 317 316 315 315 314 312 312 312 312 312 313 314 314 315 315 316 316 316 316 317 317 318 318 318 318 317 316 315 315 313 311 307 303 299 297 297 298 299 299 298 298 299 300 302 302 303 305 307 310 312 314 314 314 316 318 319 319 320 321 322 323 324 327
330 330 329 328 327 327 327 326 323 321 321 322 322 322 322 321 321 322 321 320 320 320 319 318 317 316 316 314 313 312 311 311 311 311 311 312 312 313 314 314 313 314 314 315 315 316 316 316 315 315 314 313 313 311 308 304 300 298 298 299 299 298 297 297 297 298 299 300 301 302 305 307 309 311 311 312 313 315 316 317 317 317 318 320 322 324
330 329 327 325 324 322 322 322 321 320 320 321 321 322 321 320 321 321 320 320 321 321 320 319 318 317 317 316 315 314 312 312 311 311 310 311 311 311 312 312 312 312 312 313 313 314 314 313 313 312 312 312 312 311 308 304 302 300 300 299 299 298 297 296 295 296 297 297 298 300 302 303 305 307 308 309 310 312 314 314 314 314 315 317 319 321
326 325 324 323 322 321 320 319 319 320 322 323 322 321 320 319 320 320 319 319 320 320 319 319 317 316 316 315 315 314 313 313 312 312 311 311 311 311 311 311 311 311 312 312 312 312 312 312 312 311 311 311 311 311 308 305 303 301 300 299 298 297 296 295 295 295 296 296 297 298 299 300 301 303 305 306 306 309 311 312 312 311 312 314 316 318
323 322 321 321 320 320 320 320 319 319 320 321 321 319 318 318 318 318 318 318 318 318 318 317 316 316 315 315 314 314 313 313 313 313 312 312 312 311 311 311 311 311 311 312 312 311 311 311 311 311 310 310 310 309 307 305 303 302 301 299 298 296 295 295 295 295 295 295 295 295 296 297 298 300 302 303 304 306 308 309 308 308 309 311 313 313
319 318 318 318 316 316 317 317 315 315 315 317 318 317 316 316 316 316 316 316 316 316 315 315 314 314 314 314 314 314 313 312 313 313 312 311 311 311 311 311 311 311 311 311 311 310 310 310 310 310 309 309 309 308 307 305 304 303 302 300 298 296 295 294 295 295 295 294 294 293 293 295 296 298 299 301 302 303 304 305 306 305 305 306 309 309